AO-07 1 07530U 74089B 24046.58741852 -.00000023 00000-0 14613-3 0 9993 2 07530 101.9726 40.1150 0012044 319.5392 153.8587 12.53672172253673 UO-11 1 14781U 84021B 24046.50223894 .00002860 00000-0 33262-3 0 9990 2 14781 97.6905 19.6270 0009605 116.2530 243.9674 14.86046845130265 AO-16 1 20439U 90005D 24046.62401333 .00000451 00000-0 18075-3 0 9994 2 20439 98.8995 48.3258 0010224 205.8569 272.1430 14.33281553779773 LO-19 1 20442U 90005G 24046.51655351 .00000462 00000-0 18397-3 0 9996 2 20442 98.8738 33.6233 0011623 180.2139 179.9041 14.33438674780205 AO-27 1 22825U 93061C 24046.71060975 .00000267 00000-0 12004-3 0 9994 2 22825 98.8079 98.1102 0009462 79.0469 281.1777 14.30427417585373 IO-26 1 22826U 93061D 24046.72148760 .00000307 00000-0 13441-3 0 9996 2 22826 98.8024 97.9826 0009878 65.7104 294.5109 14.30801581585637 FO-29 1 24278U 96046B 24046.45475704 .00000033 00000-0 67181-4 0 9993 2 24278 98.5670 357.2751 0350716 146.0565 216.3561 13.53171872358085 FO-29 1 24278U 96046B 24046.45475704 .00000033 00000-0 67181-4 0 9993 2 24278 98.5670 357.2751 0350716 146.0565 216.3561 13.53171872357837 NOAA-15 1 25338U 98030A 24046.77326085 .00000372 00000-0 17246-3 0 9990 2 25338 98.5834 76.3808 0009645 327.4566 32.6019 14.26494564339987 GO-32 1 25397U 98043D 24046.83884068 .00000292 00000-0 14716-3 0 9996 2 25397 98.9056 11.8452 0001990 123.6923 236.4445 14.23986574330228 ISS 1 25544U 98067A 24046.87766939 .00023336 00000-0 41607-3 0 9999 2 25544 51.6405 201.4889 0001736 260.9197 253.5842 15.49971812439581 NO-44 1 26931U 01043C 24046.77160269 .00000381 00000-0 17576-3 0 9994 2 26931 67.0510 287.7780 0005162 273.2995 86.7516 14.31123959168592 SO-50 1 27607U 02058C 24046.58331526 .00003216 00000-0 45446-3 0 9994 2 27607 64.5539 238.1994 0039461 164.6811 195.5498 14.78330346138194 CO-55 1 27844U 03031E 24046.54858940 .00000832 00000-0 38781-3 0 9994 2 27844 98.6799 55.2890 0010522 136.0639 224.1378 14.23080640 70341 CO-57 1 27848U 03031J 24046.57637547 .00000705 00000-0 33533-3 0 9998 2 27848 98.6831 55.6264 0010187 150.5843 209.5910 14.22548846 70150 RS-22 1 27939U 03042A 24046.80625213 .00003039 00000-0 52216-3 0 9996 2 27939 98.2714 201.2475 0013324 87.3631 18.5713 14.69356176 90300 NOAA-18 1 28654U 05018A 24046.79128588 .00000377 00000-0 22542-3 0 9998 2 28654 98.8848 124.7415 0014878 53.3884 306.8654 14.13124340965976 CO-58 1 28895U 05043F 24046.35702385 .00003531 00000-0 63890-3 0 9994 2 28895 98.1802 182.2324 0016426 28.9151 331.2959 14.66902383976443 CO-65 1 32785U 08021C 24046.53455121 .00008358 00000-0 76892-3 0 9997 2 32785 97.7412 13.1717 0012313 24.3592 335.8208 14.94954178857148 AAUSAT2 1 32788U 08021F 24046.73328807 .00024473 00000-0 14480-2 0 9992 2 32788 97.5868 27.2790 0004258 218.1659 141.9270 15.11426463859897 CO-66 1 32791U 08021J 24046.44896738 .00013076 00000-0 10299-2 0 9998 2 32791 97.6830 18.6711 0007011 357.0698 3.0484 15.00901032858098 RS-30 1 32953U 08025A 24046.82144609 .00000057 00000-0 34041-3 0 9994 2 32953 82.5066 165.5856 0019020 15.2039 344.9609 12.43135591713920 PRISM 1 33493U 09002B 24046.57019105 .00021135 00000-0 11789-2 0 9997 2 33493 98.2248 84.1326 0012542 310.4873 49.5262 15.13532863820466 NOAA-19 1 33591U 09005A 24046.79652119 .00000356 00000-0 21596-3 0 9991 2 33591 99.0660 101.2143 0012899 277.3841 82.5865 14.12928185774346 SRMSAT 1 37841U 11058D 24046.57422872 .00000698 00000-0 23731-3 0 9993 2 37841 19.9705 178.3305 0011736 186.3601 262.0297 14.11037306637220 HRBE 1 37855U 11061F 24046.82008165 .00074081 00000-0 12644-2 0 9992 2 37855 101.6843 155.3258 0078295 1.9474 358.2050 15.47613988674415 RS-40 1 38735U 12041C 24046.55314821 .00000037 00000-0 19404-3 0 9990 2 38735 82.4712 246.3285 0017886 124.9686 235.3076 12.42603449523942 ZACUBE-1 1 39417U 13066B 24046.42708177 .00007098 00000-0 76903-3 0 9994 2 39417 97.7197 5.4290 0051492 204.3795 155.4986 14.87539446553324 Delfi-N3xt 1 39428U 13066N 24046.71836797 .00008335 00000-0 11126-2 0 9998 2 39428 97.8390 328.5033 0106029 124.3644 236.7651 14.75912128548197 GOMX-1 1 39430U 13066Q 24046.75333206 .00004909 00000-0 83287-3 0 9993 2 39430 97.7507 288.4968 0140715 281.9801 76.5659 14.63293140545137 LO-74 1 39440U 13066AA 24046.81511478 .00008364 00000-0 10193-2 0 9994 2 39440 97.8012 353.3661 0070680 314.8969 44.6519 14.81842646551405 AO-73 1 39444U 13066AE 24046.33275878 .00007706 00000-0 78804-3 0 9999 2 39444 97.7055 8.1945 0049631 186.8927 173.1614 14.89901233551802 SPROUT 1 39770U 14029E 24046.66119362 .00073318 00000-0 33193-2 0 9995 2 39770 98.0035 189.3886 0005724 243.1603 116.9045 15.20571688528894 DTUSAT-2 1 40030U 14033W 24046.58780477 .00009459 00000-0 84212-3 0 9997 2 40030 97.9939 356.1103 0009645 194.3156 165.7793 14.96239437524352 EO-80 1 40032U 14033Y 24046.29281424 .00008617 00000-0 76694-3 0 9995 2 40032 97.9948 355.8241 0009220 195.2432 164.8512 14.96284546524281 HODOYOSHI-1 1 40299U 14070B 24046.68600209 .00023757 00000-0 56288-3 0 9999 2 40299 97.1590 108.7646 0009936 117.5538 242.6720 15.41704836516213 GRIFEX 1 40379U 15003D 24046.79643035 .01114940 71400-3 14733-2 0 9990 2 40379 99.0712 55.5440 0021259 130.8125 229.5000 16.06449678501336 XW-2C 1 40906U 15049H 24046.79151163 .00030048 00000-0 87834-3 0 9995 2 40906 97.4893 61.0797 0010577 32.8338 327.3560 15.35181591465659 XW-2D 1 40907U 15049J 24046.80614199 .00036494 00000-0 92779-3 0 9996 2 40907 97.4851 62.6213 0008883 26.1708 333.9984 15.39490967465813 LILACSAT-2 1 40908U 15049K 24046.81789094 .00011524 00000-0 48223-3 0 9997 2 40908 97.5292 54.8754 0014751 64.0128 296.2627 15.23636827464842 XW-2E 1 40909U 15049L 24046.62151219 .00240650 00000-0 16290-2 0 9991 2 40909 97.4254 73.7956 0000952 352.9507 7.1743 15.74319617466876 XW-2F 1 40910U 15049M 24046.83013025 .00220339 00000-0 16207-2 0 9998 2 40910 97.4364 73.2279 0001597 349.9854 10.1378 15.72421061466626 XW-2B 1 40911U 15049N 24046.78626462 .00036505 00000-0 94171-3 0 9995 2 40911 97.4828 62.8482 0009029 27.4599 332.7121 15.39041936465680 IO-86 1 40931U 15052B 24006.28856983 .00001263 00000-0 84248-4 0 9993 2 40931 6.0004 76.3799 0013541 291.8204 68.0484 14.77555377447321 ChubuSat-2 1 41338U 16012B 24046.58391355 .00007619 00000-0 49544-3 0 9996 2 41338 31.0019 98.8438 0011831 89.5889 270.6104 15.06590260439084 ChubuSat-3 1 41339U 16012C 24046.81887748 .00006896 00000-0 45271-3 0 9998 2 41339 31.0084 95.1735 0011807 97.6413 262.5565 15.06198209439104 Horyu-4 1 41340U 16012D 24046.36223203 .00014616 00000-0 80377-3 0 9995 2 41340 31.0039 53.8223 0011186 170.4626 189.6226 15.12831905439517 Horyu-4 1 41340U 16012D 24046.36223203 .00014616 00000-0 80377-3 0 9995 2 41340 31.0039 53.8223 0011186 170.4626 189.6226 15.12831905439517 e-st@r-II 1 41459U 16025D 24046.73531456 .00135539 00000-0 16318-2 0 9994 2 41459 98.1472 281.6205 0057195 318.8674 40.8274 15.58357747430402 Lapan A3 1 41603U 16040E 24046.77636936 .00005766 00000-0 23937-3 0 9999 2 41603 97.1516 66.0829 0012570 166.9396 193.2170 15.24139129424573 Pratham 1 41783U 16059A 24046.57499281 .00001707 00000-0 32795-3 0 9999 2 41783 97.8479 71.6330 0033781 51.1348 309.2862 14.64519670394596 CAS-2T 1 41847U 16066G 24046.75264815 .00003692 00000-0 54874-3 0 9998 2 41847 98.4739 118.9439 0356120 185.7159 173.9917 14.40710034381861 CAS-4B 1 42759U 17034B 24046.76113405 .00020441 00000-0 84474-3 0 9996 2 42759 43.0137 195.9278 0012882 258.0211 101.9196 15.23558989368704 CAS-4A 1 42761U 17034D 24046.77186270 .00020804 00000-0 85728-3 0 9996 2 42761 43.0120 194.3130 0012933 260.0184 99.9207 15.23646500368715 NIUSat 1 42766U 17036B 24046.06489548 .00146764 00000-0 13851-2 0 9990 2 42766 97.1215 80.0254 0002766 287.3043 72.7915 15.66568741370223 Aalto 1 1 42775U 17036L 24046.52986442 .00051014 00000-0 90256-3 0 9994 2 42775 97.1255 76.3130 0004884 308.7426 51.3389 15.50141589370019 URSA MAIOR 1 42776U 17036M 24046.58199998 .00070899 00000-0 10054-2 0 9992 2 42776 97.1239 78.9206 0003672 293.9157 66.1714 15.56213475370177 Max Valier Sat 1 42778U 17036P 24046.61681616 .00062797 00000-0 85265-3 0 9996 2 42778 97.1252 82.9904 0003284 294.3987 65.6926 15.57421193370357 D-SAT 1 42794U 17036AF 24046.50140717 .00007435 00000-0 54992-3 0 9995 2 42794 97.4859 32.9794 0110105 200.6604 159.0152 14.98669379362332 TechnoSat 1 42829U 17042E 24046.77918259 .00005810 00000-0 52963-3 0 9995 2 42829 97.3806 234.8212 0013700 123.4313 236.8220 14.95406225358872 AO-91 1 43017U 17073E 24046.65401476 .00014591 00000-0 94575-3 0 9995 2 43017 97.5972 286.5933 0218998 342.8404 16.5490 14.90529096337399 TianYi 2 1 43155U 18008A 24046.80826752 .00056765 00000-0 13670-2 0 9997 2 43155 97.2604 100.2358 0009576 153.8929 206.2803 15.41029530335957 Zhou Enlai 1 43156U 18008B 24046.77925520 .00069064 00000-0 14940-2 0 9994 2 43156 97.2644 101.0139 0007339 154.3729 205.7885 15.44209254335913 TianYi 6 1 43158U 18008D 24046.70756215 .00038057 00000-0 11109-2 0 9994 2 43158 97.2727 96.0755 0008640 160.8187 199.3384 15.35192767335619 S-Net D 1 43186U 18014G 24046.28041720 .00008096 00000-0 60641-3 0 9999 2 43186 97.6007 310.3629 0011630 64.8637 295.3794 15.02910948330039 S-Net B 1 43187U 18014H 24046.68165408 .00008220 00000-0 61553-3 0 9996 2 43187 97.6012 310.6969 0012444 59.0224 301.2223 15.02909561330097 S-Net A 1 43188U 18014J 24046.61455006 .00008200 00000-0 61395-3 0 9998 2 43188 97.6016 310.7344 0012326 59.9867 300.2580 15.02915685330089 S-Net C 1 43189U 18014K 24046.28449631 .00008118 00000-0 60781-3 0 9995 2 43189 97.6026 310.3332 0014146 53.5873 306.6655 15.02902906328580 CubeBel-1 1 43666U 18083E 24046.65020428 .00481487 00000-0 19681-2 0 9997 2 43666 97.3364 89.4590 0002277 276.5660 83.5351 15.84895256294973 Changshagaoxin 1 43669U 18083H 24046.81596174 .00121165 00000-0 14977-2 0 9991 2 43669 97.3496 81.2633 0002269 355.0098 5.1135 15.59715548294549 Ten-Koh 1 43677U 18084G 24046.42554718 .00005787 00000-0 53546-3 0 9993 2 43677 98.0425 196.6015 0015609 66.2678 294.0177 14.94850940288373 PO-101 1 43678U 18084H 24046.71885027 .00003794 00000-0 35598-3 0 9999 2 43678 98.0526 201.3127 0010656 77.8689 282.3723 14.94579148288624 QO-100 1 43700U 18090A 24046.53304712 .00000139 00000-0 00000-0 0 9996 2 43700 0.0144 110.1232 0001144 211.3016 41.2498 1.00273563 19127 MinXSS-2 1 43758U 18099A 24046.16357965 .00014306 00000-0 98241-3 0 9993 2 43758 97.5720 110.6116 0018436 23.5932 336.6137 15.05938570284254 AO-95 1 43770U 18099N 24046.40070243 .00008812 00000-0 65010-3 0 9998 2 43770 97.5625 106.9907 0015708 62.4622 297.8197 15.03413064284107 RANGE-B 1 43772U 18099Q 24046.17625755 .00016770 00000-0 11399-2 0 9990 2 43772 97.5420 109.9372 0005188 345.7214 14.3866 15.06410294284184 RANGE-A 1 43773U 18099R 24046.15584718 .00007786 00000-0 61466-3 0 9990 2 43773 97.5240 103.3437 0019557 34.7731 325.4767 15.00818770283976 MOVE-II 1 43780U 18099Y 24046.61119805 .00018490 00000-0 11194-2 0 9996 2 43780 97.5383 111.1537 0008174 46.8807 313.3105 15.10631714284392 SNUSat 2 1 43782U 18099AA 24046.68898952 .00008734 00000-0 65464-3 0 9992 2 43782 97.5336 107.0612 0015407 8.5756 351.5730 15.02817477284161 SnugLite 1 43784U 18099AC 24046.12636545 .00011707 00000-0 85706-3 0 9996 2 43784 97.5118 105.9519 0005243 21.7022 338.4425 15.03710677284131 ITASat 1 1 43786U 18099AE 24046.71466888 .00009097 00000-0 68985-3 0 9993 2 43786 97.5278 107.5084 0018191 48.2363 312.0413 15.02325860284177 EAGLET 1 1 43790U 18099AJ 24046.73112910 .00006287 00000-0 49143-3 0 9997 2 43790 97.5382 107.9720 0016193 39.7758 320.4650 15.01323645283894 ESEO 1 43792U 18099AL 24046.13343597 .00003164 00000-0 26627-3 0 9993 2 43792 97.5367 104.9279 0013557 30.6443 329.5569 14.98875551283765 CSIM 1 43793U 18099AM 24046.59524388 .00019132 00000-0 11548-2 0 9990 2 43793 97.5457 112.7545 0014297 19.0891 341.0871 15.10676452284242 JO-97 1 43803U 18099AX 24046.11177349 .00013547 00000-0 96470-3 0 9993 2 43803 97.5385 107.6718 0010621 9.4363 350.7061 15.04685449284172 Suomi 100 1 43804U 18099AY 24046.11006951 .00012632 00000-0 91171-3 0 9991 2 43804 97.5459 107.4758 0016735 5.4163 354.7241 15.04128565284167 CHOMPTT 1 43855U 18104G 24046.33795243 .00118518 00000-0 11947-2 0 9999 2 43855 85.0216 358.1754 0012060 103.8776 256.3831 15.64913663288238 ISAT 1 43879U 18111D 24046.24865128 .00013604 00000-0 90672-3 0 9996 2 43879 97.6293 312.8073 0015775 62.2421 298.0404 15.07097317280888 UWE-4 1 43880U 18111E 24046.23874514 .00012199 00000-0 82607-3 0 9993 2 43880 97.6195 313.0936 0019248 69.4737 290.8554 15.06484754280903 Sparrow 1 43881U 18111F 24046.52386154 .00013351 00000-0 88006-3 0 9994 2 43881 97.6367 314.7660 0012765 97.1814 263.0866 15.07548624280982 AISTechSat 3 1 44103U 19018AB 24046.70467441 .00152597 00000-0 12381-2 0 9996 2 44103 97.2071 111.7280 0003954 100.1859 259.9850 15.70264263272279 AISat 1 1 44104U 19018AC 24046.78444274 .00070588 00000-0 68124-3 0 9990 2 44104 97.3635 150.3231 0025363 79.4156 280.9959 15.65841442273569 Prox-1 1 44339U 19036A 24046.11798783 .00016803 00000-0 31061-2 0 9993 2 44339 24.0003 295.2290 0008836 69.6536 290.4906 14.63826657247172 SONATE 1 44400U 19038Q 24046.47832119 .00020533 00000-0 73779-3 0 9993 2 44400 97.7087 35.6951 0018118 172.3606 187.7912 15.28526099255302 BeeSat 9 1 44412U 19038AC 24046.53465462 .00093051 00000-0 15052-2 0 9990 2 44412 97.6873 43.7861 0013260 134.9980 225.2349 15.52409512255588 JAISAT-1 1 44419U 19038F 24046.53131459 .00089162 00000-0 14606-2 0 9995 2 44419 97.6865 44.8739 0012768 134.2312 225.9990 15.52078709255967 Taurus 1 1 44530U 19059C 24046.83184613 .00009382 00000-0 22717-2 0 9993 2 44530 98.5625 164.0891 0012348 71.6510 288.6027 14.53172996233985 Duchifat 3 1 44854U 19089C 24046.46829219 .00016925 00000-0 96705-3 0 9992 2 44854 36.9596 71.4561 0009037 174.3393 185.7456 15.12009892229666 OPS-SAT 1 44878U 19092F 24046.49667471 .00084191 00000-0 12347-2 0 9994 2 44878 97.4569 246.2228 0006249 328.5235 31.5645 15.55231536231307 TO-108 1 44881U 19093C 24046.82299169 .00002273 00000-0 28385-3 0 9992 2 44881 97.8384 125.9632 0014669 8.4905 351.6554 14.83278871224901 FloripaSat 1 1 44885U 19093G 24046.80281334 .00007055 00000-0 76444-3 0 9991 2 44885 97.8479 130.4628 0013058 4.5981 355.5354 14.88456346225157 RS-44 1 44909U 19096E 24046.44525330 .00000039 00000-0 11676-3 0 9999 2 44909 82.5237 186.3137 0216965 338.4539 20.7534 12.79726537193270 BY70-2 1 45857U 20042B 24046.79031696 .00063550 00000-0 41787-2 0 9992 2 45857 97.9154 134.9833 0008439 269.6619 90.3641 15.07282462195993 UPMSat 2 1 46276U 20061E 24046.72969887 .00017793 00000-0 62449-3 0 9991 2 46276 97.3140 114.7361 0001487 139.2214 220.9138 15.29474173191432 AmicalSat 1 46287U 20061R 24046.13160570 .00032621 00000-0 11489-2 0 9994 2 46287 97.3666 114.0438 0001327 343.1766 16.9430 15.29235572190712 AmicalSat 1 46287U 20061R 24046.13160570 .00032621 00000-0 11489-2 0 9994 2 46287 97.3666 114.0438 0001327 343.1766 16.9430 15.29235572190712 SALSAT 1 46495U 20068K 24046.84565204 .00009270 00000-0 55798-3 0 9999 2 46495 97.8015 3.3912 0014986 18.7760 341.4019 15.10960352185823 CAPE 3 1 47309U 21002A 24046.67272722 .02224793 65834-2 15915-2 0 9999 2 47309 60.6480 175.8154 0009889 18.7619 341.3874 16.17081637172231 AO-109 1 47311U 21002C 24046.77973225 .00151200 00000-0 13291-2 0 9996 2 47311 60.6699 187.0165 0024512 68.7067 291.6655 15.67615093172041 ExoCube 2 1 47319U 21002L 24046.60475944 .00135862 00000-0 13398-2 0 9995 2 47319 60.6682 191.7371 0025887 70.5920 289.7981 15.64773365171905 UVSQ-SAT 1 47438U 21006AB 24046.60791219 .00035722 00000-0 10125-2 0 9996 2 47438 97.3475 106.5085 0006526 300.6117 59.4483 15.36146518169857 YUSAT 1 1 47439U 21006AC 24046.70620128 .00064205 00000-0 13991-2 0 9990 2 47439 97.3467 109.0223 0005789 289.9055 70.1569 15.44023573170021 SOMP 2b 1 47445U 21006AJ 24046.10869921 .00040203 00000-0 11984-2 0 9999 2 47445 97.3438 104.7702 0006677 311.3402 48.7266 15.34534521169722 IDEASSat 1 47458U 21006AX 24046.11497939 .00035586 00000-0 11131-2 0 9992 2 47458 97.3541 105.5157 0006360 312.4500 47.6204 15.33033634169687 CubeSX-Sirius-HSE 1 47951U 21022V 24046.75836836 .00020524 00000-0 94278-3 0 9991 2 47951 97.4740 305.8607 0014866 201.8711 158.1892 15.20317720159943 CubeSX-HSE 1 47952U 21022W 24046.78557545 .00021335 00000-0 97735-3 0 9994 2 47952 97.4742 305.9602 0014792 200.8914 159.1718 15.20404136159951 KSU-Cubesat 1 47954U 21022Y 24046.63400242 .00023526 00000-0 10206-2 0 9992 2 47954 97.4748 306.6763 0013951 197.3220 162.7542 15.22259377159706 GRBAlpha 1 47959U 21022AD 24046.82375016 .00021352 00000-0 97523-3 0 9991 2 47959 97.4743 306.1246 0014660 201.0172 159.0462 15.20507938158788 Orbicraft-Zorkiy 1 47960U 21022AE 24046.81991519 .00023457 00000-0 10278-2 0 9993 2 47960 97.4781 307.0239 0014159 197.8865 162.1874 15.21917972159516 STECCO 1 47962U 21022AG 24046.78488029 .00058567 00000-0 16259-2 0 9993 2 47962 97.4750 312.7161 0009237 158.5298 201.6335 15.36654304159217 MO-110 1 47964U 21022AJ 24046.24407354 .00067783 00000-0 17595-2 0 9992 2 47964 97.4767 313.2845 0010436 156.6720 203.5001 15.38680564159191 TUBIN 1 48900U 21059X 24046.71165799 .00018585 00000-0 73322-3 0 9996 2 48900 97.6262 188.3736 0007917 149.2115 210.9589 15.25576999146225 IT-SPINS 1 49017U 21013G 24046.68731897 .00727211 24619-3 15215-2 0 9994 2 49017 51.5706 296.0366 0009504 193.6232 166.4522 15.98318774147677 LEDSAT 1 49069U 21073D 24046.73471515 .00017219 00000-0 79162-3 0 9998 2 49069 97.4523 119.0527 0021068 357.1011 3.0099 15.20223742137820 CUTE 1 49263U 21088D 24046.12056421 .00021594 00000-0 11587-2 0 9995 2 49263 97.5138 113.3119 0016439 144.1106 216.1234 15.14849007130987 TeikyoSat 4 1 49396U 21102B 24046.09044213 .00004741 00000-0 35114-3 0 9999 2 49396 97.4778 95.2780 0013329 339.4290 20.6398 15.03524248124250 Z-Sat 1 49399U 21102E 24046.75618062 .00007223 00000-0 48411-3 0 9996 2 49399 97.4506 97.2349 0020097 320.6492 39.3274 15.07002842124548 KOSEN 1 1 49402U 21102H 24046.69028448 .00009005 00000-0 56303-3 0 9996 2 49402 97.4433 98.2212 0018519 306.0679 53.8834 15.09514447124659 HO-113 1 50466U 21131B 24046.79109136 .00001308 00000-0 43485-3 0 9990 2 50466 98.5339 132.4501 0005143 125.9021 234.2644 14.39364897112394 Tevel-3 1 50988U 22002E 24046.72891308 .00063826 00000-0 14817-2 0 9998 2 50988 97.3981 119.1021 0005216 87.6756 272.5089 15.42137479116056 Tevel-8 1 50989U 22002F 24046.76033977 .00059164 00000-0 13792-2 0 9994 2 50989 97.3998 119.2181 0005097 85.6297 274.5532 15.42033723116050 Tevel-5 1 50998U 22002Q 24046.67672588 .00069082 00000-0 15006-2 0 9991 2 50998 97.3976 119.8660 0005646 78.6978 281.4905 15.44097257116103 Tevel-6 1 50999U 22002R 24046.67709323 .00068640 00000-0 14932-2 0 9996 2 50999 97.3976 119.8515 0005626 78.4477 281.7402 15.44055556116104 Tevel-1 1 51013U 22002AF 24046.74889166 .00060627 00000-0 14126-2 0 9998 2 51013 97.3974 119.0154 0004971 86.6216 273.5600 15.42042717116051 IRIS-A 1 51044U 22002BN 24046.71964751 .00020358 00000-0 78714-3 0 9994 2 51044 97.4018 114.0802 0008074 104.1354 256.0782 15.26225616115719 Tevel-7 1 51062U 22002CG 24046.69053159 .00060958 00000-0 14176-2 0 9993 2 51062 97.3992 119.1183 0005099 86.1554 274.0276 15.42098459116048 Tevel-4 1 51063U 22002CH 24046.77650327 .00061061 00000-0 14276-2 0 9990 2 51063 97.3992 119.1475 0005066 85.5777 274.6048 15.41936926116050 Tevel-2 1 51069U 22002CP 24046.66400794 .00064875 00000-0 15051-2 0 9993 2 51069 97.3978 119.0031 0005157 87.7695 272.4143 15.42152136116046 SO-115 1 51080U 22002DA 24046.44933868 .00105840 00000-0 17687-2 0 9990 2 51080 97.4260 125.5694 0005515 107.4142 252.7713 15.51530505116275 SO-114 1 51081U 22002DB 24042.44227715 .00119066 00000-0 19882-2 0 9998 2 51081 97.4267 121.5210 0005808 124.3301 235.8501 15.51500694115668 OreSat0 1 52017U 22026K 24046.55288987 .00046323 00000-0 12103-2 0 9992 2 52017 97.5071 56.7788 0013484 306.9912 53.0098 15.38545651106776 Planetum 1 1 52738U 22057G 24046.32629678 .00036289 00000-0 12049-2 0 9996 2 52738 97.5522 169.2177 0005544 222.5351 137.5461 15.31118133 95714 Foresail-1 1 52766U 22057AL 24046.29539821 .00023414 00000-0 89812-3 0 9992 2 52766 97.5663 169.5958 0010037 199.8786 160.2062 15.26448056 95671 SNUGLITE 2 1 52899U 22065F 24046.35488073 .00002901 00000-0 61069-3 0 9999 2 52899 98.0977 190.0766 0007943 169.2964 190.8407 14.60223446 86335 IO-117 1 53106U 22080B 24043.52023407 -.00000003 00000-0 00000+0 0 9996 2 53106 70.1295 236.1834 0008299 131.4215 228.7158 6.42557813 37197 SelfieSat 1 53951U 22057BC 24046.29548150 .00054389 00000-0 14937-2 0 9994 2 53951 97.5557 171.1924 0006652 217.6975 142.3804 15.37031466 95815 FO-118 1 54684U 22167C 24046.73307812 .00029486 00000-0 12599-2 0 9999 2 54684 97.5872 189.5255 0011061 213.2869 146.7673 15.22762334 65620 SSS-2B 1 56184U 23054G 24046.76833321 .00030824 00000-0 98577-3 0 9993 2 56184 97.3846 304.4713 0006091 250.9650 109.0932 15.32356630 47344 CIRBE 1 56188U 23054L 24046.23696525 .00052574 00000-0 14286-2 0 9992 2 56188 97.3774 304.5155 0004468 234.5010 125.5818 15.37382287 47318 INSPIRE-Sat 7 1 56211U 23054AK 24046.67228985 .00045610 00000-0 11838-2 0 9991 2 56211 97.3812 305.8617 0008453 214.0260 146.0445 15.38808854 47434 RoseyCubesat 1 1 56212U 23054AL 24046.68641478 .00051337 00000-0 12688-2 0 9996 2 56212 97.3818 306.1705 0008352 210.3794 149.6969 15.40278966 47452 SO-120 1 56992U 23084BU 24046.54386737 .00028811 00000-0 13127-2 0 9993 2 56992 97.5185 165.4558 0015170 94.6255 265.6713 15.20522007 37506 MRC-100 1 56993U 23084BV 24046.49692931 .00031100 00000-0 13813-2 0 9991 2 56993 97.5189 165.5367 0014692 94.3799 265.9115 15.21386854 37517 UmKA 1 (RS40S) 1 57172U 23091G 24046.79747836 .00007730 00000-0 53532-3 0 9992 2 57172 97.6317 100.1346 0017545 172.9466 187.2011 15.05811314 35062 CubeBel-2 (EU11S) 1 57175U 23091K 24046.77774459 .00009891 00000-0 68224-3 0 9998 2 57175 97.6301 99.9961 0015675 186.4150 173.6878 15.05908440 35054 VERONIKA 1 58261U 23174F 24046.75564335 .00019651 00000-0 10208-2 0 9998 2 58261 97.4732 123.1015 0012533 313.6189 46.4004 15.16066016 15134 KAFASAT 1 58317U 23174BP 24046.64863214 .00022584 00000-0 11078-2 0 9991 2 58317 97.4679 123.1754 0011285 290.7075 69.2949 15.18062084 15132 ENSO 1 58470U 23185J 24046.69431833 .00016435 00000-0 79041-3 0 9999 2 58470 97.4431 115.0434 0013600 353.7404 6.3658 15.18792199 11527 EIRSAT-1 1 58472U 23185L 24046.82501142 .00018187 00000-0 87099-3 0 9995 2 58472 97.4424 115.1659 0013397 354.1023 6.0051 15.18918418 11546 SO-121 1 58567U 23174CY 24046.16283845 .00043243 00000-0 21002-2 0 9994 2 58567 97.4686 122.6163 0014178 301.7829 58.2024 15.18229594 15053 Clark sat-1 (AMBITIOUS) 1 58613U 98067WE 24046.77847982 .00177113 00000-0 18015-2 0 9998 2 58613 51.6349 198.9129 0008298 264.4028 95.6021 15.64018601 9302 BeliefSat-0 1 58695U 24001B 24046.77548465 .00263909 00000-0 89846-3 0 9999 2 58695 9.6644 84.5818 0004564 320.3055 39.6826 15.87665915 7212 /EX
